This is the latest recevied weather packets stored in our database for station/object KD7KCN-5. If no packets are shown the sender has not sent any weather packets the latest 10 day(s).
| Time | Temp. | Humidity | Pressure | Rain* | Wind** | Luminosity | Snow |
|---|---|---|---|---|---|---|---|
| 1777654921 | 16.11° C | 26% | 1018 hPa | 0 mm | - | 795 W/m² | - |
| 1777654321 | 15.56° C | 26% | 1018 hPa | 0 mm | - | 726 W/m² | - |
| 1777653722 | 16.11° C | 26% | 1017.9 hPa | 0 mm | - | 758 W/m² | - |
| 1777653121 | 15° C | 26% | 1018 hPa | 0 mm | - | 731 W/m² | - |
| 1777652521 | 14.44° C | 28% | 1018 hPa | 0 mm | - | 142 W/m² | - |
| 1777651921 | 15° C | 28% | 1018 hPa | 0 mm | - | 682 W/m² | - |
| 1777651322 | 14.44° C | 27% | 1017.9 hPa | 0 mm | - | 656 W/m² | - |
| 1777650721 | 14.44° C | 28% | 1017.9 hPa | 0 mm | - | 631 W/m² | - |
| 1777650121 | 14.44° C | 29% | 1017.8 hPa | 0 mm | - | 601 W/m² | - |
| 1777649521 | 14.44° C | 29% | 1018 hPa | 0 mm | - | 571 W/m² | - |
| 1777648921 | 13.89° C | 30% | 1017 hPa | 0 mm | - | 541 W/m² | - |
| 1777648321 | 13.33° C | 32% | 1016.9 hPa | 0 mm | - | 508 W/m² | - |
| 1777647721 | 12.78° C | 30% | 1017.1 hPa | 0 mm | - | 478 W/m² | - |
| 1777647121 | 12.78° C | 32% | 1016.9 hPa | 0 mm | - | 445 W/m² | - |
| 1777646521 | 12.22° C | 31% | 1016.9 hPa | 0 mm | - | 415 W/m² | - |
| 1777645921 | 11.67° C | 32% | 1016.8 hPa | 0 mm | - | 380 W/m² | - |
| 1777645321 | 11.11° C | 32% | 1016.7 hPa | 0 mm | - | 343 W/m² | - |
| 1777644721 | 11.11° C | 34% | 1016.7 hPa | 0 mm | - | 309 W/m² | - |
| 1777644121 | 10.56° C | 33% | 1016.5 hPa | 0 mm | - | 274 W/m² | - |
| 1777643521 | 10.56° C | 34% | 1016.3 hPa | 0 mm | - | 237 W/m² | - |
| 1777642921 | 10° C | 33% | 1016.2 hPa | 0 mm | - | 197 W/m² | - |
| 1777642321 | 9.44° C | 35% | 1016 hPa | 0 mm | - | 155 W/m² | - |
| 1777641721 | 8.89° C | 35% | 1015.8 hPa | 0 mm | - | 113 W/m² | - |
| 1777641121 | 8.33° C | 35% | 1015.8 hPa | 0 mm | - | 74 W/m² | - |
| 1777640521 | 7.78° C | 36% | 1015.7 hPa | 0 mm | - | 44 W/m² | - |
* Rain latest hour (hover to see other rain measurements)
** Current wind speed in m/s (hover to see current wind gust speed)